Location: Arbon
(43.0005°N, 0.7472°E)
Time: 11:19:12
(UTC+00:00)

Cosmos 1315 Rocket - Pass Details

Date: 22 April 2026
Orbit: 490 x 510 km, 81.2° (Epoch: 15 May)

Event Time Altitude Azimuth Distance (km) Brightness Sun altitude
Exits shadow 21:44:00 35° 298° (WNW) 828 4.1 -26.9°
Drops below altitude 10° 21:47:08 10° 353° (N) 1,712 6.1 -27.3°
Sets 21:49:23 0° 2° (N) 2,597 7.0 -27.5°
